Weather History for Akron, CO

Change the Weather History Date:

Friday, March 29, 2013

  Actual Average Record
Temperature  
Mean Temperature 54 °F 42 °F  
Max Temperature 68 °F 56 °F 83 °F (1943)
Min Temperature 40 °F 29 °F 0 °F (1975)
Degree Days  
Heating Degree Days 11    
Month to date heating degree days 848  
Cooling Degree Days 0    
Month to date cooling degree days 0  
Growing Degree Days 4 (Base 50)    
Moisture  
Dew Point 33 °F    
Average Humidity 53    
Maximum Humidity 79    
Minimum Humidity 26    
Precipitation  
Precipitation T in 0.03 in 0.55 in (1981)
Month to date precipitation 1.49 0.79  
Year to date precipitation 1.61 1.53  
Sea Level Pressure  
Sea Level Pressure 30.02 in    
Wind  
Wind Speed 12 mph (WSW)    
Max Wind Speed 24 mph    
Max Gust Speed 29 mph    
Visibility 10 miles    
Events Rain    
T = Trace of Precipitation, MM = Missing Value Source: NWS Daily Summary

Daily Weather History Graph

Daily Weather History Graph

Search for Another Location

Airport:

Trip Planner

Search our weather history database for the weather conditions in past years. The results will help you decide how hot, cold, wet, or windy it might be!

Date:

Astronomy

Mar. 29, 2013 Rise Set
Actual Time 6:41 AM MDT 7:14 PM MDT
Civil Twilight 6:13 AM MDT 7:41 PM MDT
Nautical Twilight 5:41 AM MDT 8:14 PM MDT
Astronomical Twilight 5:08 AM MDT 8:47 PM MDT
Moon 10:17 PM MDT (3/29) 7:51 AM MDT (3/29)
Length of Visible Light 13h 28m
Length of Day
12h 33m
Waning Gibbous, 93% of the Moon is Illuminated
Mar 29
Waning Gibbous
Apr 2
Last Quarter
Apr 10
New
Apr 18
First Quarter
Apr 25
Full

Hourly Weather History & Observations

Time (MDT) Temp. Windchill Dew Point Humidity Pressure Visibility Wind Dir Wind Speed Gust Speed Precip Events Conditions
12:53 AM 45.0 °F 39.7 °F 30.0 °F 56% 30.06 in 10.0 mi SSW 10.4 mph - N/A   Clear
1:53 AM 45.0 °F 38.9 °F 30.9 °F 58% 30.05 in 10.0 mi SSW 12.7 mph - N/A   Clear
2:53 AM 43.0 °F 36.4 °F 32.0 °F 65% 30.04 in 10.0 mi SSW 12.7 mph - N/A   Clear
3:53 AM 42.1 °F 35.2 °F 32.0 °F 67% 30.04 in 10.0 mi SW 12.7 mph - N/A   Clear
4:53 AM 42.1 °F 35.2 °F 33.1 °F 70% 30.03 in 10.0 mi SW 12.7 mph - N/A   Clear
5:53 AM 44.1 °F 37.4 °F 35.1 °F 71% 30.03 in 10.0 mi SSW 13.8 mph - N/A   Scattered Clouds
6:53 AM 44.1 °F 38.1 °F 36.0 °F 73% 30.05 in 10.0 mi SSW 11.5 mph - N/A   Overcast
7:53 AM 44.1 °F 37.7 °F 36.0 °F 73% 30.09 in 10.0 mi SW 12.7 mph - N/A   Overcast
8:53 AM 46.0 °F 39.9 °F 36.0 °F 68% 30.07 in 10.0 mi South 13.8 mph - N/A   Overcast
9:53 AM 50.0 °F - 37.0 °F 61% 30.06 in 10.0 mi WSW 13.8 mph - N/A   Clear
10:53 AM 54.0 °F - 37.0 °F 53% 30.05 in 10.0 mi WSW 10.4 mph - N/A   Scattered Clouds
11:53 AM 59.0 °F - 37.9 °F 46% 30.03 in 10.0 mi WSW 11.5 mph - N/A   Clear
12:53 PM 63.0 °F - 33.1 °F 33% 30.00 in 10.0 mi WNW 11.5 mph 20.7 mph N/A   Clear
1:53 PM 64.0 °F - 30.9 °F 29% 29.97 in 10.0 mi West 10.4 mph - N/A   Clear
2:53 PM 66.0 °F - 30.9 °F 27% 29.94 in 10.0 mi West 10.4 mph 16.1 mph N/A   Clear
3:53 PM 63.0 °F - 27.0 °F 26% 29.95 in 10.0 mi NNW 11.5 mph 26.5 mph 0.00 in Rain Light Rain
4:21 PM 62.6 °F - 28.4 °F 27% 30.02 in 10.0 mi WSW 15.0 mph - 0.00 in   Overcast
4:53 PM 60.1 °F - 30.9 °F 33% 29.97 in 10.0 mi WSW 20.7 mph - 0.00 in   Overcast
5:53 PM 62.1 °F - 33.1 °F 34% 29.96 in 10.0 mi WNW 8.1 mph - N/A   Scattered Clouds
6:53 PM 55.9 °F - 33.1 °F 42% 29.99 in 10.0 mi NNW 15.0 mph - N/A   Mostly Cloudy
7:53 PM 52.0 °F - 34.0 °F 50% 30.00 in 10.0 mi NW 8.1 mph - N/A   Partly Cloudy
8:53 PM 50.0 °F - 36.0 °F 59% 30.02 in 10.0 mi West 6.9 mph - N/A   Overcast
9:53 PM 46.0 °F 41.4 °F 34.0 °F 63% 30.03 in 10.0 mi West 9.2 mph - N/A   Clear
10:53 PM 43.0 °F 38.8 °F 32.0 °F 65% 30.03 in 10.0 mi West 6.9 mph - N/A   Clear
11:53 PM 39.9 °F 32.5 °F 33.1 °F 77% 30.02 in 10.0 mi WSW 12.7 mph - N/A   Partly Cloudy